[[{"header":{"parameterUnit":"m.s-1","parameterCategory":1,"la1":30.2991,"la2":30.254,"lo1":-89.0895,"lo2":-89.0444,"dy":0.0017,"dx":0.0017,"nx":28,"ny":28,"refTime":"2024-04-18T09:00:00:Z","depth":0,"parameterNumber":2,"parameterNumberName":"U-component_of_WINDS"},"data":[0,0,0,0,0,0,0,0,0,0,0,0,0,0,0,0,0,0,0,0,0,0,0,0,0,0,0,0,0,0,0,0,0,0,0,0,0,0,0,0,0,0,0,0,0,0,0,0,0,0,0,0,0,0,0,0,0,0,0.4726,0.4728,0,0.4875,0.4877,0.4878,0.4956,0.4956,0.4956,0.4956,0.5109,0.5113,0.5117,0,0,0,0,0,0,0,0,0,0,0,0,0,0.451,0.4514,0.4726,0.4728,0.473,0.4875,0.4877,0.4879,0.4956,0.4956,0.4956,0.4956,0.5108,0.5112,0.5117,0,0,0,0,0,0,0,0,0,0,0,0,0,0.4626,0.4515,0.4726,0.4786,0.4793,0.4874,0.4877,0.4879,0.4956,0.4956,0.4956,0.4956,0.5106,0.5112,0.5118,0.5151,0,0,0.5136,0.5139,0,0,0,0,0,0,0,0,0.4619,0.4634,0.4775,0.4782,0.479,0.4897,0.4857,0.4971,0.4956,0.4894,0.4956,0.4956,0.5038,0.505,0.5077,0.5159,0.5165,0.5137,0.514,0.5143,0.5144,0,0,0,0,0,0,0,0.4611,0.4628,0.4785,0.4777,0.4786,0.4806,0.4822,0.4879,0.4963,0.4899,0.4905,0.4922,0.5042,0.5072,0.5082,0.5167,0.5136,0.5142,0.5145,0.5148,0.5285,0.5285,0,0,0,0,0,0,0.4593,0.4621,0.478,0.479,0.4703,0.4809,0.4828,0.4862,0.4963,0.4979,0.4921,0.4925,0.5061,0.5075,0.5087,0.5134,0.5143,0.5148,0.5152,0.5284,0.5285,0.5285,0,0,0,0,0,0,0.4588,0.4607,0.4775,0.4707,0.473,0.4813,0.4851,0.4865,0.4895,0.498,0.4995,0.4936,0.5062,0.5079,0.5135,0.514,0.5151,0.5156,0.5284,0.5285,0.5285,0.5227,0,0,0,0,0,0,0.4582,0.4605,0.4618,0.4707,0.4733,0.4819,0.4851,0.4868,0.4904,0.491,0.4997,0.5012,0.5063,0.5126,0.5141,0.5149,0.5161,0.5284,0.5284,0.5285,0.5229,0.5225,0.5222,0,0,0,0,0,0.4574,0.4596,0.4618,0.4637,0.4751,0.4819,0.4834,0.4893,0.4904,0.4919,0.4974,0.5009,0.5137,0.5131,0.5149,0.5158,0.5284,0.5284,0.5285,0.523,0.5226,0.5222,0,0,0,0,0,0,0.4505,0.4608,0.4634,0.4685,0.4743,0.4832,0.4852,0.4886,0.4942,0.4945,0.5016,0.5035,0.5085,0.5127,0.5118,0.5197,0.5214,0.5218,0.5167,0.5163,0.516,0.5149,0.5166,0,0,0,0,0,0.4496,0.4543,0.463,0.4667,0.4694,0.4768,0.48,0.484,0.4903,0.4927,0.4987,0.5046,0.51,0.5134,0.5188,0.5235,0.5255,0.5251,0.5247,0.5244,0.5246,0.5275,0.5274,0.5285,0.5285,0.5285,0,0,0.4478,0.454,0.4565,0.4655,0.4704,0.4751,0.4788,0.4836,0.4871,0.4935,0.4992,0.5037,0.5108,0.516,0.5186,0.5197,0.5248,0.5244,0.5241,0.5245,0.5275,0.5274,0.5273,0.5285,0.5285,0.5285,0,0,0.4468,0.4519,0.4556,0.4605,0.4679,0.4728,0.4736,0.4821,0.4853,0.4911,0.496,0.5004,0.5095,0.5144,0.5181,0.519,0.5225,0.5206,0.5188,0.5215,0.5214,0.5214,0.5218,0.5218,0.5208,0.5208,0.5208,0,0.4436,0.4508,0.457,0.4616,0.4654,0.4714,0.4751,0.4796,0.4884,0.4909,0.492,0.5036,0.5089,0.5153,0.5155,0.5183,0.5195,0.5196,0.5209,0.5209,0.521,0.5214,0.5216,0.5205,0.5205,0.5206,0.5206,0,0.4465,0.4514,0.4535,0.4619,0.466,0.4701,0.4769,0.4803,0.484,0.4888,0.4947,0.5011,0.508,0.5098,0.5135,0.5168,0.5173,0.5195,0.5215,0.5205,0.521,0.5213,0.5201,0.5202,0.5203,0.5204,0,0,0.4416,0.4534,0.454,0.458,0.4666,0.4706,0.475,0.4817,0.4845,0.4904,0.4943,0.5019,0.5041,0.5083,0.5125,0.5149,0.5153,0.5169,0.5172,0.5164,0.5194,0.5177,0.5178,0.5176,0.5177,0.5177,0.5189,0,0.4419,0.4501,0.4558,0.4618,0.4665,0.4723,0.4761,0.4819,0.4865,0.4912,0.4963,0.5016,0.504,0.5066,0.5092,0.5147,0.516,0.5147,0.5214,0.5216,0.5194,0.518,0.5162,0.5169,0.5191,0.5191,0.5192,0,0.4433,0.449,0.4554,0.4637,0.4659,0.4692,0.4759,0.4803,0.487,0.4902,0.4948,0.4992,0.5042,0.5056,0.5126,0.5116,0.5147,0.5178,0.518,0.5188,0.5203,0.5189,0.5173,0.5174,0.5196,0.5195,0.5195,0,0.4391,0.4484,0.4535,0.4567,0.4664,0.4687,0.4728,0.4795,0.4832,0.489,0.4915,0.4978,0.5013,0.5061,0.512,0.5126,0.5184,0.5204,0.5212,0.5211,0.5222,0.5221,0.5211,0.5242,0.5241,0.5241,0.5241,0,0.4388,0.4425,0.4518,0.4549,0.4593,0.4659,0.47,0.4747,0.4806,0.4848,0.4901,0.4939,0.5016,0.5063,0.511,0.5161,0.5176,0.5204,0.5216,0.5199,0.5195,0.522,0.5221,0.5242,0.5242,0.5242,0.5242,0,0.4348,0.4412,0.4471,0.4559,0.4582,0.461,0.4685,0.4718,0.4767,0.4819,0.4835,0.4912,0.4971,0.5035,0.5115,0.5147,0.5195,0.5213,0.5173,0.518,0.5185,0.5183,0.5191,0.5195,0.5222,0.5221,0.5221,0,0.4342,0.4373,0.4464,0.4495,0.4536,0.4586,0.4624,0.4691,0.4728,0.4807,0.483,0.4893,0.4947,0.5038,0.5101,0.5163,0.5182,0.518,0.5192,0.5174,0.5182,0.518,0.5183,0.5177,0.5176,0.5176,0.5175,0,0.4325,0.4355,0.4408,0.4472,0.4516,0.457,0.4626,0.4649,0.4726,0.4766,0.4826,0.4868,0.495,0.5012,0.5081,0.5125,0.5163,0.5171,0.5177,0.516,0.5136,0.5149,0.5164,0.5171,0.5171,0.5172,0.5172,0.5172,0.4303,0.4332,0.4401,0.4459,0.4508,0.4559,0.4594,0.4648,0.47,0.4772,0.4808,0.4868,0.4935,0.5033,0.5075,0.5123,0.5135,0.5143,0.5145,0.5146,0.5141,0.5128,0.5136,0.5136,0.5137,0.5137,0.5137,0,0.4288,0.4336,0.4388,0.4465,0.451,0.4542,0.4606,0.4641,0.4694,0.4753,0.4805,0.4875,0.4935,0.5003,0.5068,0.5094,0.5113,0.5108,0.5107,0.5117,0.5127,0.5116,0.5092,0.5092,0.5092,0.5092,0.5092,0.5092,0.4286,0.4339,0.4377,0.4454,0.4502,0.4561,0.4595,0.4642,0.469,0.4766,0.4816,0.486,0.4924,0.4993,0.505,0.5069,0.509,0.508,0.5104,0.5112,0.5116,0.5119,0.511,0.5085,0.5085,0.509,0.509,0.509]},{"header":{"parameterUnit":"m.s-1","parameterCategory":1,"la1":30.2991,"la2":30.254,"lo1":-89.0895,"lo2":-89.0444,"dy":0.0017,"dx":0.0017,"nx":28,"ny":28,"refTime":"2024-04-18T09:00:00:Z","depth":0,"parameterNumber":3,"parameterNumberName":"V-component_of_WINDS"},"data":[0,0,0,0,0,0,0,0,0,0,0,0,0,0,0,0,0,0,0,0,0,0,0,0,0,0,0,0,0,0,0,0,0,0,0,0,0,0,0,0,0,0,0,0,0,0,0,0,0,0,0,0,0,0,0,0,0,0,3.113,3.113,0,3.1142,3.1142,3.1142,3.1151,3.1151,3.1151,3.1151,3.1162,3.1162,3.1162,0,0,0,0,0,0,0,0,0,0,0,0,0,3.1111,3.1111,3.113,3.113,3.113,3.1142,3.1142,3.1142,3.1151,3.1151,3.1151,3.1151,3.1162,3.1162,3.1162,0,0,0,0,0,0,0,0,0,0,0,0,0,3.1121,3.1112,3.113,3.1136,3.1136,3.1142,3.1142,3.1143,3.1151,3.1151,3.1151,3.1151,3.1162,3.1162,3.1162,3.1163,0,0,3.1163,3.1163,0,0,0,0,0,0,0,0,3.112,3.1122,3.1135,3.1135,3.1136,3.1145,3.114,3.1149,3.115,3.1145,3.1151,3.1151,3.1156,3.1157,3.1159,3.1163,3.1164,3.1163,3.1164,3.1164,3.1164,0,0,0,0,0,0,0,3.112,3.1121,3.1135,3.1135,3.1136,3.1137,3.1138,3.1142,3.115,3.1146,3.1146,3.1148,3.1156,3.1158,3.1159,3.1164,3.1163,3.1164,3.1164,3.1164,3.1168,3.1168,0,0,0,0,0,0,3.1118,3.112,3.1134,3.1135,3.1128,3.1137,3.1139,3.1142,3.115,3.1151,3.1148,3.1148,3.1158,3.1159,3.116,3.116,3.1164,3.1164,3.1164,3.1168,3.1168,3.1168,0,0,0,0,0,0,3.1118,3.112,3.1134,3.1128,3.113,3.1137,3.1141,3.1142,3.1144,3.1151,3.1153,3.1148,3.1158,3.1159,3.1162,3.116,3.1164,3.1165,3.1168,3.1168,3.1168,3.1161,0,0,0,0,0,0,3.1117,3.1119,3.112,3.1128,3.113,3.1137,3.1141,3.1142,3.1145,3.1146,3.1152,3.1154,3.1158,3.1161,3.1162,3.1161,3.1165,3.1168,3.1168,3.1168,3.1161,3.1161,3.116,0,0,0,0,0,3.1117,3.1118,3.112,3.1122,3.1132,3.1136,3.1138,3.1143,3.1145,3.1146,3.115,3.1153,3.116,3.1161,3.1162,3.1161,3.1168,3.1168,3.1168,3.1162,3.1161,3.116,0,0,0,0,0,0,3.111,3.1119,3.1122,3.1126,3.113,3.1138,3.1139,3.1142,3.1146,3.1146,3.1153,3.1154,3.1156,3.1159,3.116,3.1162,3.1165,3.1165,3.116,3.1159,3.1158,3.1157,3.1165,0,0,0,0,0,3.1109,3.1112,3.112,3.1123,3.1125,3.1131,3.1134,3.1137,3.1142,3.1144,3.1149,3.1152,3.1155,3.1157,3.116,3.1162,3.1163,3.1161,3.1161,3.116,3.116,3.116,3.1159,3.1167,3.1167,3.1167,0,0,3.1107,3.1112,3.1114,3.1121,3.1125,3.1128,3.1133,3.1136,3.1138,3.1144,3.1147,3.115,3.1155,3.1157,3.1158,3.1159,3.1158,3.116,3.1159,3.116,3.1159,3.1159,3.1158,3.1167,3.1167,3.1167,0,0,3.1104,3.1109,3.1111,3.1115,3.1121,3.1125,3.1125,3.1132,3.1135,3.1137,3.1142,3.1144,3.1149,3.1152,3.1154,3.1151,3.1154,3.1152,3.1148,3.1148,3.1147,3.1147,3.1145,3.1145,3.1152,3.1152,3.1152,0,3.1101,3.1106,3.1112,3.1115,3.1117,3.1123,3.1125,3.1128,3.1134,3.1135,3.1137,3.1143,3.1147,3.1149,3.1148,3.115,3.115,3.1151,3.1147,3.1147,3.1146,3.1145,3.1144,3.1151,3.1151,3.1151,3.1151,0,3.1101,3.1104,3.1105,3.1112,3.1114,3.1116,3.1122,3.1124,3.1127,3.113,3.1132,3.1136,3.114,3.1141,3.1144,3.1143,3.1143,3.1146,3.1149,3.1145,3.1144,3.1143,3.1151,3.1151,3.1151,3.1151,0,0,3.1096,3.1104,3.1105,3.1107,3.1113,3.1115,3.1117,3.1121,3.1122,3.1126,3.1127,3.113,3.1132,3.1135,3.1138,3.1138,3.1134,3.114,3.114,3.1139,3.1132,3.113,3.1129,3.1136,3.1136,3.1136,3.1132,0,3.1094,3.1098,3.1103,3.1105,3.1108,3.1112,3.1114,3.1117,3.112,3.1122,3.1125,3.1127,3.113,3.1132,3.1132,3.1135,3.1133,3.1135,3.1137,3.1137,3.1135,3.1129,3.1127,3.1123,3.1131,3.1131,3.1131,0,3.1093,3.1097,3.1099,3.1104,3.1105,3.1106,3.111,3.1112,3.1115,3.1117,3.1119,3.1122,3.1123,3.1126,3.1127,3.1128,3.1129,3.113,3.113,3.1131,3.1134,3.1129,3.1122,3.1121,3.113,3.113,3.113,0,3.1088,3.1094,3.1096,3.1097,3.1103,3.1104,3.1106,3.111,3.1111,3.1113,3.1114,3.1117,3.1118,3.1119,3.1123,3.1124,3.1123,3.1126,3.1124,3.1124,3.1124,3.1124,3.1116,3.1124,3.1124,3.1124,3.1124,0,3.1086,3.1087,3.1093,3.1095,3.1096,3.11,3.1101,3.1103,3.1106,3.1107,3.1111,3.1112,3.1116,3.1117,3.112,3.112,3.112,3.1121,3.1122,3.1121,3.1121,3.1122,3.1122,3.1124,3.1124,3.1124,3.1124,0,3.1081,3.1086,3.1088,3.1093,3.1094,3.1094,3.1098,3.1099,3.1102,3.1103,3.1103,3.1107,3.1109,3.1112,3.1114,3.1116,3.1115,3.1116,3.1114,3.1114,3.1112,3.1112,3.1105,3.1104,3.1112,3.1112,3.1112,0,3.108,3.1081,3.1086,3.1087,3.1089,3.1091,3.1092,3.1096,3.1097,3.11,3.11,3.1102,3.1103,3.1105,3.1107,3.1109,3.111,3.1107,3.111,3.1109,3.1109,3.1109,3.1109,3.1107,3.1107,3.1107,3.1106,0,3.1076,3.1078,3.108,3.1082,3.1084,3.1086,3.1088,3.1089,3.1093,3.1094,3.1095,3.1096,3.1098,3.1099,3.1101,3.1102,3.1105,3.1105,3.1105,3.1104,3.1102,3.1103,3.1112,3.1106,3.1106,3.1106,3.1106,3.1106,3.1073,3.1073,3.1077,3.1078,3.108,3.1082,3.1083,3.1085,3.1086,3.1088,3.109,3.1091,3.1093,3.1095,3.1097,3.1097,3.1098,3.1098,3.1097,3.1097,3.1096,3.1102,3.1097,3.1097,3.1097,3.1097,3.1097,0,3.1069,3.1071,3.1073,3.1075,3.1077,3.1079,3.1081,3.1082,3.1082,3.1084,3.1085,3.1086,3.1087,3.1089,3.109,3.1089,3.109,3.1089,3.1089,3.109,3.1095,3.1096,3.1088,3.1088,3.1088,3.1088,3.1088,3.1088,3.1067,3.1068,3.107,3.1071,3.1073,3.1074,3.1075,3.1076,3.1078,3.1078,3.1079,3.108,3.1082,3.1083,3.1083,3.1084,3.1084,3.1082,3.1083,3.1088,3.1089,3.109,3.109,3.1082,3.1082,3.1077,3.1077,3.1077]}]]